Wind_Speed
42 42 42 41 40 40 40 41 41 40 38 38 37 38 37 36 37 38 38 37 36 34 33 32 31 30 29 29 27 27 26 26 25 25 25 25 25 23 21 19 20 21 19 18 17 16 16 16 17 17 16 15 13 10 9 8 7 7 7 8 8 7 8 7 8 10 13 13 13 14 14 15 16 16 17 17 17 16 15 14 14 14 14 14 13
43 42 41 41 41 41 40 40 40 40 38 37 37 38 37 37 36 36 36 37 36 35 34 33 32 31 31 30 29 28 27 27 26 26 27 27 27 26 24 22 22 22 22 21 20 19 19 18 18 17 17 18 16 12 10 10 10 9 9 9 10 9 10 11 11 11 14 17 16 16 16 16 17 17 17 18 18 18 17 16 14 13 14 14 14
43 42 41 41 42 41 40 39 39 39 39 38 38 38 38 37 36 35 35 35 35 35 35 34 33 32 31 31 30 29 29 28 27 27 28 29 29 29 27 26 25 25 25 25 24 22 21 21 20 19 18 19 19 17 14 13 13 13 12 12 12 12 11 13 13 13 15 18 18 17 17 17 18 17 17 18 18 18 18 18 16 14 14 14 14
41 40 40 40 40 40 39 38 38 38 38 38 39 39 38 37 37 36 35 34 33 34 34 33 33 32 32 32 31 31 30 30 29 29 29 30 30 31 30 29 28 28 28 28 27 26 24 24 23 21 19 19 20 19 17 16 16 16 16 15 15 15 13 13 14 14 16 18 19 19 18 18 19 18 18 18 18 18 18 18 16 14 13 13 12
39 39 39 39 38 38 38 38 37 37 38 38 39 39 38 37 36 36 36 35 34 33 33 33 32 32 33 33 32 32 31 31 30 30 30 31 31 31 31 30 30 30 29 29 28 27 26 26 25 23 21 20 21 21 19 18 18 18 18 18 17 17 16 15 15 15 16 17 19 19 18 18 19 19 18 18 18 19 19 18 15 13 12 11 11
38 38 38 38 38 38 38 38 38 38 38 38 38 38 37 36 36 35 36 35 35 34 33 33 33 33 33 33 33 32 32 32 32 31 31 31 31 31 31 30 30 30 29 29 28 27 26 27 26 25 23 22 22 22 21 20 19 19 19 19 18 18 17 17 17 16 17 17 18 19 19 19 20 20 19 17 18 19 19 18 14 11 9 10 13
37 37 37 37 38 38 39 39 39 38 39 38 38 37 37 37 36 36 35 35 35 34 34 33 33 34 34 34 34 34 33 32 32 32 32 31 32 32 31 31 30 30 30 30 29 28 28 27 26 25 24 23 23 22 22 22 22 22 21 20 19 18 18 18 18 18 18 18 18 19 19 19 19 20 20 18 18 18 18 17 14 10 7 11 17
37 37 37 37 37 38 39 39 39 39 38 38 37 37 36 36 36 36 35 34 34 34 34 34 33 33 34 34 35 34 34 33 32 32 32 32 32 32 32 31 31 30 30 30 30 30 29 29 28 27 26 24 23 23 23 23 23 24 24 22 21 20 19 20 20 20 20 19 18 19 19 19 19 20 20 19 18 17 16 16 15 11 9 13 17
36 36 36 37 38 38 38 38 38 37 37 37 37 37 36 36 36 36 35 35 35 34 34 33 33 33 33 34 34 34 34 34 34 33 33 33 32 33 33 32 32 31 31 31 31 31 31 31 30 29 28 27 26 24 24 23 23 24 24 23 22 21 20 20 20 21 20 19 20 20 19 20 20 20 19 18 17 16 16 15 15 13 12 16 17
36 36 36 37 38 38 37 37 36 36 36 36 36 36 36 36 35 35 35 35 35 34 33 33 33 32 32 33 33 33 34 34 35 35 34 34 34 33 33 33 32 32 32 31 32 32 32 32 32 31 30 29 28 27 26 25 24 23 23 23 22 22 22 22 21 21 20 19 21 20 19 20 21 19 18 18 18 17 16 15 14 14 14 17 16
36 37 37 37 37 37 36 36 36 36 36 36 36 36 36 36 36 35 35 35 35 34 33 32 33 32 32 32 32 33 33 35 36 36 36 36 35 34 33 33 32 32 32 32 32 33 33 33 32 32 32 31 31 30 28 27 25 24 23 23 23 23 24 24 23 23 21 20 22 21 19 21 23 20 18 19 18 16 15 13 14 15 14 14 13
34 35 36 36 36 36 36 36 36 36 36 36 36 36 36 35 36 35 35 35 35 34 34 33 33 33 32 32 32 33 34 35 36 36 37 37 36 35 34 33 32 32 32 32 33 33 33 33 32 32 32 32 32 31 30 29 27 26 24 23 23 24 25 26 26 26 24 23 23 24 22 23 23 22 20 19 18 16 15 13 13 16 16 14 13
32 33 33 34 35 35 36 35 35 36 36 37 36 36 36 36 36 36 36 35 35 34 35 35 34 33 33 32 33 33 34 36 37 37 37 38 37 36 35 34 33 33 33 33 33 33 33 33 33 32 32 32 31 31 30 29 28 27 26 24 23 24 25 26 26 28 28 27 26 27 27 25 25 25 23 21 19 18 16 15 15 16 17 16 16
24 27 30 33 34 35 35 35 36 36 36 36 36 36 36 36 36 36 36 35 35 35 35 35 35 34 34 34 34 34 35 37 37 38 38 39 38 37 37 36 35 34 34 33 33 33 34 34 34 34 33 32 32 31 30 29 29 28 27 26 25 24 24 25 26 27 28 30 30 32 32 30 29 29 26 23 22 20 18 16 16 15 16 17 15
19 19 22 27 31 34 35 35 35 36 36 36 36 36 36 36 36 36 35 35 35 35 35 35 35 35 35 34 34 34 36 37 38 38 39 39 39 38 37 36 35 35 35 35 34 35 35 35 35 35 35 34 33 32 31 30 29 28 28 27 27 26 25 25 25 26 27 29 29 30 31 31 30 30 28 26 23 21 19 17 15 15 15 16 15
22 22 20 21 24 28 32 35 35 35 35 36 36 35 35 36 36 36 35 34 34 34 34 34 35 35 35 35 34 35 37 38 38 39 40 40 39 38 38 37 36 35 35 35 36 36 36 35 35 36 36 36 35 33 32 30 29 28 29 28 28 28 28 27 26 27 28 27 25 24 24 24 25 26 25 23 20 20 19 17 15 15 14 14 16
22 24 24 24 24 24 27 31 34 35 35 35 35 36 36 36 36 36 35 34 34 34 34 34 34 35 35 35 36 36 38 39 39 39 40 39 39 38 38 37 37 37 37 37 37 37 37 37 37 36 36 37 36 35 33 30 29 29 29 30 30 30 30 29 28 28 29 28 26 25 23 22 22 21 20 19 19 20 20 18 18 17 14 13 14
14 17 20 24 25 24 25 28 31 33 35 35 36 36 36 36 37 37 36 36 35 35 35 35 35 35 36 36 37 38 39 40 40 40 40 39 39 39 38 38 37 37 38 38 38 37 38 38 37 37 37 38 38 36 34 31 30 30 30 30 30 31 33 32 31 30 30 29 28 27 25 23 21 20 19 19 19 20 22 22 21 18 15 15 14
7 10 13 16 20 23 25 28 31 33 35 36 36 36 37 37 37 37 37 36 36 35 35 34 34 35 35 37 38 39 40 40 40 40 41 40 39 39 39 37 36 37 38 38 37 37 37 38 37 37 38 39 39 38 35 33 31 31 31 30 30 32 34 33 31 31 29 28 27 26 24 23 21 20 20 19 19 20 23 24 22 19 17 17 15
8 9 10 12 16 20 23 29 35 36 36 37 37 36 37 36 36 36 35 35 35 34 34 34 34 35 35 36 37 39 40 40 40 40 41 41 40 40 39 37 37 37 37 37 36 36 36 37 38 38 39 40 40 39 37 34 33 32 32 31 32 34 35 33 31 30 28 27 27 26 25 24 22 21 20 20 19 19 20 22 21 20 19 19 17
15 12 11 12 15 17 20 29 37 39 38 38 37 36 36 36 35 36 35 35 34 33 33 33 33 34 35 36 37 38 39 40 40 41 42 42 41 41 40 39 40 39 38 36 36 36 36 37 38 39 39 40 40 39 38 36 35 34 33 33 34 35 34 32 31 30 28 28 28 27 26 24 23 22 21 21 19 18 18 20 19 18 18 18 18
19 17 14 13 14 14 17 26 35 38 38 38 37 36 36 36 35 36 35 34 33 33 33 33 33 33 34 35 36 37 38 39 40 41 42 42 42 42 42 42 42 41 38 36 36 36 37 37 38 38 38 38 37 37 36 35 35 35 35 35 35 34 34 34 33 31 29 28 28 27 26 25 24 23 22 21 19 18 18 18 18 17 16 16 17
21 19 16 15 15 15 16 22 31 35 35 36 37 37 36 36 35 35 34 33 33 33 33 33 32 32 32 33 35 36 37 38 40 41 42 43 43 43 43 43 43 43 40 38 38 38 38 38 38 37 36 35 34 33 33 33 34 34 35 35 34 32 31 31 31 31 30 29 27 27 26 26 25 24 23 22 20 19 18 18 18 17 15 14 16
21 19 16 16 17 16 16 21 28 33 35 36 37 36 35 35 35 34 34 33 31 31 32 32 31 30 30 30 32 34 36 37 38 40 42 43 44 44 44 44 44 44 43 42 41 40 39 39 38 37 35 34 33 32 32 32 32 32 33 34 33 31 29 29 30 30 29 28 27 27 27 26 25 25 24 23 21 20 20 19 18 16 14 15 16
19 19 17 16 17 17 17 19 25 31 35 36 36 36 35 34 33 33 33 33 31 31 30 31 31 30 29 30 30 31 33 35 36 38 40 43 44 45 45 45 44 45 45 45 44 42 40 40 39 38 36 35 34 33 33 33 32 32 31 31 31 30 30 30 31 30 28 28 29 29 29 28 27 26 24 22 20 19 19 18 17 16 16 15 14
18 17 17 18 19 18 17 18 23 30 34 36 37 37 36 34 33 33 33 33 33 32 30 30 30 29 29 30 29 29 30 32 35 37 38 41 44 45 45 46 45 45 46 46 45 43 42 41 40 38 37 35 34 34 34 33 32 31 29 28 27 27 28 29 30 30 30 29 30 30 30 30 28 25 22 20 19 18 17 17 17 17 17 16 15
17 17 17 19 19 18 17 17 20 27 32 35 35 35 35 35 33 32 32 32 31 30 29 28 28 28 28 28 28 28 29 31 34 35 37 39 42 44 45 46 45 45 47 48 47 45 42 41 39 37 35 33 32 32 32 31 30 28 27 26 26 26 26 27 29 30 30 29 29 30 29 28 25 22 22 21 20 18 17 16 18 19 19 18 16
17 17 18 18 18 18 18 16 17 23 29 31 33 33 33 34 33 33 35 36 33 31 31 30 30 31 30 28 28 28 29 33 36 36 36 38 41 43 44 45 46 46 46 47 47 46 42 38 35 34 32 30 30 30 30 29 29 28 27 26 26 26 27 28 29 29 29 29 29 28 27 26 24 23 21 19 18 17 16 16 19 21 21 19 18
16 17 17 18 18 19 20 18 14 19 25 28 31 34 35 37 37 38 40 42 41 39 37 35 36 35 33 32 31 29 30 35 38 37 36 38 41 42 43 44 45 45 45 46 45 43 39 34 32 31 30 30 30 31 31 31 30 30 29 28 28 28 29 29 30 28 28 29 29 30 29 25 19 15 14 14 16 17 16 18 21 22 22 21 20
15 15 16 17 18 20 22 21 16 16 22 25 27 31 33 36 39 39 39 41 44 44 43 41 40 39 36 36 37 36 38 39 38 37 37 38 39 40 41 43 43 44 44 43 40 36 33 32 31 31 30 30 31 32 32 32 32 31 30 30 30 30 30 31 30 27 26 26 28 31 28 19 11 12 16 17 19 21 20 21 23 23 23 22 20
14 14 16 16 17 19 21 21 18 14 19 25 26 26 28 32 36 39 39 38 39 43 44 43 42 40 38 38 39 41 42 40 35 34 35 36 36 37 38 39 40 41 41 40 37 33 31 30 30 31 31 32 33 33 32 32 32 32 31 31 32 32 31 30 28 26 25 25 27 28 24 18 18 23 24 21 21 23 21 22 23 22 21 22 22
15 15 16 16 17 18 19 20 20 16 15 20 25 25 24 26 29 35 38 37 35 38 41 43 42 41 40 40 39 39 40 38 35 33 32 32 34 35 36 36 37 37 38 37 35 33 33 31 30 30 31 32 33 33 33 32 33 33 32 31 31 32 32 30 28 26 26 26 26 25 22 22 24 26 23 21 22 22 22 23 23 21 21 22 23
16 15 16 17 17 17 17 18 18 17 14 15 21 25 25 25 25 29 33 35 34 35 37 41 43 42 42 42 41 39 38 37 36 34 33 32 33 33 34 35 36 36 37 36 34 33 33 32 30 30 31 33 35 34 33 34 35 34 32 31 30 30 30 28 27 26 26 25 25 24 23 23 23 22 20 22 23 22 23 24 23 21 21 22 22
16 15 16 17 17 16 16 17 17 16 15 13 16 19 21 23 24 24 24 26 28 30 33 37 40 42 42 42 42 40 38 36 35 35 35 35 34 32 32 33 34 35 36 37 36 34 32 31 31 32 33 35 36 34 33 35 36 33 30 30 30 28 26 24 23 25 25 24 23 22 22 22 21 20 20 22 23 22 24 25 24 23 23 22 22
16 16 15 16 17 18 18 17 16 16 16 15 15 15 17 21 23 24 24 24 25 27 31 35 38 41 42 43 41 40 38 36 35 35 35 35 35 33 31 31 32 32 34 36 36 35 33 33 33 34 35 37 37 35 34 35 35 33 31 30 29 26 24 24 25 26 25 23 22 21 21 20 20 21 22 24 25 25 26 28 27 26 24 23 22
15 16 16 18 19 20 20 18 17 17 18 18 19 20 22 22 21 24 26 27 26 27 28 30 33 36 39 40 40 38 37 36 36 36 35 36 36 35 33 32 32 32 35 38 38 37 36 35 35 37 38 36 33 32 32 32 34 35 32 28 25 24 24 25 27 27 26 24 22 22 22 21 22 24 26 27 28 28 28 29 27 24 23 23 23
15 16 17 19 19 19 19 19 18 18 19 20 22 24 24 23 21 21 22 24 25 25 25 25 27 30 32 35 36 35 35 36 36 36 35 35 36 37 38 37 36 35 36 37 38 38 36 36 38 36 31 27 27 31 34 33 34 34 31 28 29 29 27 27 29 28 26 24 24 23 24 25 26 27 28 27 27 27 26 25 24 22 23 24 24
14 15 17 18 18 17 18 19 19 20 19 19 22 24 23 22 23 22 22 23 25 25 25 26 27 28 30 32 33 32 32 33 33 34 35 36 37 38 40 39 37 37 37 37 37 36 34 36 38 31 25 26 33 39 38 35 32 29 28 29 31 29 26 25 27 26 24 24 24 24 24 25 25 26 25 24 24 23 22 23 23 24 24 24 23
14 15 16 18 18 16 15 16 18 20 19 18 19 21 21 21 21 21 23 24 24 24 26 26 27 28 30 31 30 29 28 29 30 33 36 38 39 41 41 39 37 36 35 34 32 31 33 36 34 27 26 32 39 39 37 35 31 28 30 32 29 25 24 25 25 24 24 24 24 23 23 23 23 23 23 22 21 20 20 22 23 25 25 24 23
15 15 15 17 19 17 15 15 17 18 18 18 19 19 19 21 21 22 24 23 22 23 25 25 26 29 31 30 30 30 30 31 33 34 35 37 38 39 38 36 35 34 33 31 30 30 32 34 30 25 26 32 36 34 33 33 30 28 30 30 27 24 24 24 23 23 24 23 22 22 22 21 21 20 20 19 18 18 19 19 20 22 23 22 22
15 15 15 17 18 17 16 16 17 17 17 17 18 19 19 20 20 22 23 23 23 25 26 27 29 32 32 32 34 35 34 33 33 33 33 33 33 32 30 29 29 30 29 29 28 28 28 27 25 22 23 27 30 30 30 29 26 24 25 24 22 21 21 20 20 21 22 21 21 21 20 19 18 18 18 18 17 17 17 18 18 19 19 19 20
13 14 15 16 17 16 16 17 17 18 17 16 15 16 18 20 20 19 22 25 27 27 27 27 27 28 29 31 32 31 28 27 27 27 26 24 23 22 21 21 21 21 21 21 22 23 23 22 19 18 20 23 26 27 28 28 25 23 21 21 20 19 19 19 19 20 21 21 21 20 18 17 16 17 18 18 17 16 17 18 18 18 19 20 21
11 12 14 15 15 15 15 16 17 18 18 16 14 14 16 17 18 18 19 24 28 29 27 25 24 24 24 24 23 23 22 21 22 21 19 18 17 16 14 14 14 13 14 15 18 20 21 21 19 19 19 21 20 19 21 23 23 21 21 21 22 22 22 21 21 21 21 21 20 16 14 14 15 16 17 17 16 17 18 19 19 20 20 21 21
10 12 14 15 15 16 16 16 17 17 17 16 14 14 15 15 14 14 15 17 23 27 25 20 17 16 16 16 18 20 20 19 19 20 19 19 18 18 17 17 16 17 17 19 20 22 22 22 22 21 18 17 18 19 19 20 21 22 22 23 24 24 23 22 21 20 20 21 19 15 13 13 15 16 16 17 17 19 20 20 20 21 20 19 18
11 12 14 16 17 17 17 17 17 17 17 18 18 17 18 18 16 15 15 13 10 11 14 14 15 17 18 19 20 21 20 20 21 21 22 22 22 21 22 22 21 22 23 24 24 24 24 25 25 23 20 19 20 22 23 23 23 23 23 23 23 22 22 21 19 17 17 17 18 17 16 16 17 17 18 19 20 21 21 20 19 19 18 16 15
13 14 15 17 18 18 18 18 18 18 19 20 21 21 21 22 21 20 19 17 14 9 7 12 16 19 21 21 21 23 24 25 25 25 25 25 25 25 26 27 29 29 29 29 28 28 28 28 27 25 23 23 23 24 25 25 24 24 23 23 23 22 22 20 19 18 18 18 19 20 20 20 20 20 20 20 20 19 18 17 16 15 14 13 12
14 15 16 17 18 19 20 19 19 20 21 21 23 24 24 24 25 25 24 22 19 18 16 15 16 20 23 23 22 24 26 27 29 30 30 29 29 29 28 29 32 35 35 34 33 33 33 33 31 29 26 24 24 25 26 26 25 25 24 24 24 23 22 21 21 21 20 20 21 21 22 22 21 20 18 18 17 16 15 15 13 11 10 9 8
15 16 16 18 20 21 21 20 20 21 23 24 25 25 26 27 27 27 26 25 23 21 20 19 19 21 24 24 23 25 28 30 31 32 33 33 34 33 31 30 31 35 38 38 37 37 37 36 35 33 31 29 27 26 26 26 25 24 24 23 23 22 21 21 21 20 19 18 17 17 18 18 18 17 16 15 14 13 12 11 10 9 8 7 7
16 17 17 19 20 21 21 21 22 22 24 26 27 27 27 28 28 27 26 25 23 22 22 22 21 22 24 25 25 26 29 32 34 35 35 35 36 37 36 34 32 34 38 39 38 38 38 38 37 36 35 32 30 28 26 25 25 23 22 22 21 19 18 17 17 16 15 14 13 13 13 14 15 14 13 12 12 11 10 9 9 8 8 7 7
16 17 17 18 19 20 20 22 23 24 25 26 27 27 28 28 28 27 27 25 23 22 22 22 22 21 21 24 27 27 26 27 31 35 35 34 35 37 37 35 34 35 37 39 39 39 39 38 37 36 34 32 30 28 27 26 24 23 21 20 19 17 16 15 14 13 12 12 11 11 11 12 12 12 12 11 11 10 10 10 9 9 8 7 7
16 17 17 18 20 21 22 23 24 24 25 25 26 27 27 27 27 27 27 26 24 23 24 25 25 22 20 21 27 30 28 24 26 32 35 34 34 35 35 33 33 36 38 39 39 38 37 36 36 35 32 30 28 27 26 25 23 21 20 19 17 16 15 15 14 13 12 11 11 11 10 11 11 11 11 10 10 9 9 9 8 8 7 7 6
Wind_Direction
204 205 207 208 210 211 213 214 216 217 219 220 221 222 224 226 228 229 229 230 232 234 235 235 234 233 233 233 234 236 238 239 238 236 237 242 245 244 243 240 237 237 239 243 245 246 248 251 251 251 253 258 265 271 266 261 260 257 257 260 263 272 278 267 258 278 298 307 312 319 325 327 331 338 342 342 345 347 348 349 349 344 338 333 332
204 206 207 208 210 212 213 214 216 217 219 220 222 223 224 225 227 228 229 230 232 233 234 235 234 234 233 234 235 236 237 239 239 237 237 240 242 243 242 241 240 239 240 242 245 247 249 251 252 252 253 254 256 260 262 261 261 261 260 259 264 271 273 271 267 273 289 300 307 313 318 323 326 331 337 338 340 343 344 347 345 336 332 329 324
205 206 207 208 211 212 213 215 216 217 218 220 223 225 226 226 227 227 229 231 232 233 235 235 234 234 234 235 235 236 236 238 239 239 238 238 240 243 244 244 243 242 242 244 246 247 248 250 253 254 255 255 253 254 258 261 262 265 266 266 271 276 274 273 269 268 280 293 301 307 313 318 320 325 332 333 334 337 338 341 340 331 326 324 321
205 206 207 209 211 212 213 214 215 217 218 220 223 225 226 227 228 228 230 231 233 234 235 236 236 236 235 235 235 236 237 237 238 240 240 241 241 244 245 247 247 247 247 248 249 249 249 250 253 255 257 257 256 255 256 260 262 265 268 270 273 275 275 273 272 272 275 282 293 302 309 312 315 320 325 326 328 331 334 336 337 331 324 322 325
205 206 207 209 210 212 213 214 214 216 218 221 223 225 226 226 227 229 231 233 234 236 237 237 237 237 236 236 236 237 238 239 239 239 241 242 243 245 247 249 249 250 250 250 250 250 250 251 254 256 257 259 259 256 255 258 262 266 269 270 271 273 276 275 275 276 273 275 286 297 303 307 310 315 319 321 322 326 331 334 336 333 327 325 331
205 206 207 208 210 212 212 213 214 216 218 220 223 225 226 226 226 227 230 232 234 236 238 238 237 237 237 238 238 239 240 240 240 241 241 242 243 245 247 250 252 252 252 251 250 250 251 252 254 256 257 259 259 257 256 257 261 265 267 269 271 274 275 275 276 277 276 277 284 291 297 302 305 309 313 316 317 321 327 332 336 337 331 327 334
205 206 207 208 210 211 212 214 215 216 218 220 222 224 225 226 227 227 228 230 232 234 235 237 238 238 238 239 239 241 241 241 241 242 242 241 241 243 245 248 252 254 254 253 252 252 253 253 255 255 255 257 259 259 260 260 261 264 266 269 272 273 273 274 276 277 277 280 283 286 292 297 299 302 308 312 315 320 325 327 329 331 327 326 334
205 206 208 209 211 212 213 214 215 217 218 220 221 223 225 226 227 227 228 228 230 232 233 235 237 238 239 240 241 241 242 242 242 242 242 241 240 241 243 246 249 252 255 255 254 253 254 255 256 256 256 257 260 262 263 264 266 267 269 271 273 273 273 274 277 277 277 279 282 285 288 290 292 297 304 309 314 321 327 322 315 313 315 323 332
205 206 208 210 212 213 214 215 216 217 218 219 220 222 224 226 227 227 228 228 229 231 232 234 236 237 238 239 240 240 240 241 242 242 241 240 239 240 241 243 246 249 253 255 255 255 255 257 258 258 259 259 261 263 266 268 269 270 272 274 274 275 274 275 275 275 275 276 279 281 283 284 289 294 300 309 314 318 322 315 302 298 304 316 326
204 206 208 210 212 213 214 215 216 217 217 219 220 221 222 224 226 227 228 229 230 231 232 233 234 235 236 237 238 238 238 239 241 242 242 241 240 239 239 241 243 246 249 252 255 256 257 258 259 260 260 261 262 265 266 268 269 271 273 274 274 275 275 275 275 274 274 274 276 278 279 281 287 292 297 307 313 314 315 309 295 291 301 313 321
204 206 208 211 212 213 213 214 215 216 217 218 219 221 222 222 224 226 227 229 230 231 231 232 233 234 235 236 236 236 236 238 240 241 242 241 240 239 238 240 241 243 246 248 252 256 258 259 261 261 261 261 262 264 265 267 268 269 272 272 273 274 274 273 275 276 274 272 274 276 275 278 286 293 297 303 308 309 309 302 289 289 299 310 314
205 207 209 210 211 212 213 214 214 215 216 218 219 220 221 222 222 223 225 227 229 230 231 231 232 233 234 234 235 235 236 238 239 240 241 241 240 238 238 239 241 242 244 246 249 253 256 259 261 263 263 262 262 263 265 267 269 269 271 272 272 273 273 273 274 275 273 272 274 275 274 277 285 291 294 299 304 306 305 295 284 286 291 294 295
207 209 210 210 211 212 212 213 214 215 216 217 218 220 220 220 221 222 223 225 226 228 230 231 232 232 232 232 234 235 237 239 240 240 241 241 240 238 237 237 239 242 244 245 248 251 253 256 259 261 263 264 263 263 264 266 269 271 272 272 272 272 272 272 273 274 273 270 269 272 275 276 280 286 291 295 298 300 298 292 288 287 286 287 290
209 212 212 212 212 212 212 213 213 215 216 217 218 218 218 220 221 222 223 223 224 226 227 229 231 231 231 232 233 235 237 239 240 240 241 241 241 239 237 236 238 241 244 246 248 250 251 253 255 259 262 264 264 264 263 265 268 270 272 272 272 272 272 273 274 275 275 271 267 269 275 276 277 284 289 290 292 296 294 291 292 289 285 288 288
201 210 217 219 217 213 212 212 213 215 215 216 217 217 218 219 220 221 222 222 223 224 226 228 229 230 231 231 232 234 237 239 240 240 241 241 241 239 237 235 236 238 242 245 247 250 252 252 254 258 261 264 265 265 265 266 267 269 271 272 274 275 274 273 273 277 280 280 275 274 277 278 279 283 286 287 289 292 292 291 291 286 284 285 281
197 201 211 223 226 223 218 213 212 215 215 215 216 216 217 219 220 221 221 222 223 224 225 226 228 229 230 230 231 233 236 239 240 240 241 241 240 238 237 235 235 236 240 243 246 249 251 252 253 256 260 263 265 266 266 266 266 266 268 270 273 275 275 273 272 275 280 283 283 283 284 284 283 283 283 281 280 284 287 287 284 280 277 276 277
208 205 205 210 218 228 230 222 215 214 215 215 215 216 217 218 219 219 219 220 221 222 223 225 227 228 228 229 229 232 235 237 238 240 241 241 238 236 235 234 234 236 239 242 244 247 249 250 252 254 257 261 264 266 265 264 262 263 265 267 270 272 274 274 273 273 276 279 282 284 285 284 281 278 274 270 269 276 279 276 275 274 263 258 269
228 224 217 211 210 217 230 234 225 217 215 216 216 217 217 217 218 219 218 218 219 220 222 224 225 227 227 228 229 231 234 237 237 239 240 240 237 236 234 233 233 235 239 241 243 244 247 249 251 252 255 259 263 265 264 262 260 260 261 263 265 267 271 273 273 273 275 277 278 280 279 278 275 271 268 265 265 269 271 271 273 270 252 245 255
273 263 248 230 218 214 219 231 232 224 219 219 219 218 218 218 218 218 218 219 220 220 220 221 223 225 227 229 230 231 233 236 237 238 239 239 237 235 233 231 232 234 238 240 242 243 245 247 249 250 253 258 261 263 262 260 259 260 261 260 259 263 268 272 273 274 276 276 278 279 279 279 277 273 269 265 262 267 272 273 270 261 250 248 248
326 304 284 261 241 226 218 223 229 227 223 222 222 220 219 218 218 217 218 219 220 220 220 220 222 224 226 228 230 230 232 234 235 237 238 238 237 234 230 228 231 234 236 238 240 242 243 246 247 249 252 256 259 261 261 260 260 261 261 257 256 262 269 272 272 274 276 278 279 280 280 280 276 270 265 261 261 268 274 274 269 257 247 248 247
335 327 312 291 270 251 231 224 225 225 224 223 223 222 220 218 217 216 216 217 218 219 220 220 221 224 225 227 229 230 232 233 234 236 237 238 237 234 229 227 231 235 236 237 238 240 242 244 247 250 253 255 258 260 260 259 259 260 259 257 259 265 270 271 272 274 275 276 277 277 276 274 269 263 259 257 260 266 269 268 266 255 246 248 250
331 328 325 317 301 281 252 234 227 225 224 222 220 221 220 218 217 216 215 215 216 218 219 220 221 224 225 227 228 230 231 233 233 235 236 237 237 235 231 230 233 234 234 235 236 238 241 244 248 252 255 256 259 260 260 260 258 256 258 260 262 265 267 268 270 271 270 270 270 269 268 265 261 259 256 256 258 262 261 259 257 253 250 253 257
328 326 328 328 320 304 275 248 232 225 223 220 219 219 218 216 216 215 214 214 215 216 218 220 221 223 225 226 228 229 231 232 233 234 235 237 237 237 235 234 235 234 233 234 237 239 241 244 248 253 256 258 260 261 261 260 257 255 257 259 260 261 263 265 267 266 266 265 264 262 260 258 257 255 254 256 259 258 254 251 249 247 246 255 261
327 326 327 326 321 311 289 260 238 227 223 220 218 217 216 214 213 213 213 213 213 215 217 218 220 223 225 226 227 228 229 231 233 233 235 236 237 238 237 237 237 235 234 236 238 239 241 244 248 253 256 257 259 261 262 261 258 257 257 258 258 258 259 261 262 261 260 259 257 256 256 254 253 253 255 258 259 255 249 245 244 245 250 258 256
328 326 323 320 317 311 295 270 244 229 222 219 216 215 213 211 210 211 211 211 212 214 216 216 218 221 223 225 227 227 228 229 231 233 234 236 237 238 238 238 238 237 235 237 239 240 241 244 248 252 254 255 256 258 258 259 259 258 258 257 257 257 257 257 257 255 253 252 252 253 255 256 256 256 256 256 253 250 248 247 246 248 249 245 230
331 322 316 314 313 312 301 275 248 231 222 217 216 215 212 209 208 209 209 210 213 215 215 216 217 220 222 224 226 227 227 228 229 231 232 234 236 238 239 239 240 239 237 238 240 240 242 244 247 249 250 251 252 253 255 258 259 259 258 256 254 253 252 253 252 250 249 249 250 252 256 259 258 255 251 248 248 248 250 251 248 242 233 220 204
328 316 312 312 312 313 307 284 251 231 220 216 214 214 212 211 209 208 208 209 212 215 216 216 217 219 221 223 224 226 227 227 228 228 228 230 233 235 236 237 238 237 236 237 238 239 240 242 244 246 248 249 251 252 255 257 257 256 254 251 249 249 249 250 252 252 251 251 252 254 257 257 253 249 246 244 246 251 254 250 240 229 219 209 200
322 313 311 312 311 314 316 301 261 231 219 214 212 211 210 210 210 211 211 211 211 212 215 216 217 218 219 219 220 222 225 227 227 226 224 226 229 230 232 234 235 235 235 236 237 237 238 239 241 242 244 245 246 248 249 249 249 250 249 247 247 247 249 251 251 252 253 254 254 254 253 250 246 243 241 241 246 251 247 236 227 219 210 202 197
320 315 315 316 316 321 327 323 288 242 223 216 214 213 212 211 212 215 217 217 215 214 215 216 218 219 218 217 216 216 220 227 229 227 226 227 229 229 230 232 233 235 237 239 238 235 234 235 237 238 238 239 241 242 242 242 244 244 243 243 244 244 245 247 247 249 252 252 251 249 247 243 240 239 243 256 264 259 240 222 216 212 203 198 197
321 319 320 319 318 321 327 331 316 263 233 221 217 217 217 216 216 218 221 222 222 221 220 221 222 221 220 220 220 221 225 229 230 229 228 229 230 231 234 236 237 238 239 238 234 230 229 229 231 232 233 234 235 237 237 238 239 239 239 239 240 240 241 242 242 245 249 249 248 248 244 235 233 247 255 261 261 251 232 215 210 205 198 195 198
325 323 323 318 315 318 319 324 325 294 247 227 219 217 217 217 219 221 223 225 225 225 225 226 227 225 223 224 225 227 230 232 232 230 229 229 229 232 235 237 238 239 238 235 229 225 224 225 227 228 229 231 233 234 235 236 236 236 235 236 235 235 234 235 238 242 246 247 248 247 238 227 234 245 247 247 243 235 221 207 202 199 197 200 203
328 326 326 321 318 318 316 317 322 315 273 237 222 216 215 216 219 223 225 226 227 227 228 229 229 229 229 229 229 230 231 232 232 232 231 230 230 232 234 236 238 238 237 232 227 223 223 223 225 226 227 229 232 234 234 234 235 234 231 230 230 230 230 234 240 245 247 248 248 243 233 228 233 237 238 238 234 221 206 197 196 197 201 205 205
334 331 331 331 327 323 321 319 318 316 298 256 228 218 215 215 218 222 224 225 227 228 229 229 230 231 233 233 233 233 234 233 232 232 232 232 232 233 234 236 237 236 231 225 222 223 224 223 224 225 226 229 232 233 232 233 234 232 229 228 230 233 236 240 244 246 247 249 247 242 235 230 229 229 230 229 222 209 197 194 195 200 203 203 201
341 338 336 338 337 332 327 322 315 309 302 278 247 231 223 222 224 226 225 224 226 227 228 228 229 231 233 235 235 235 235 235 234 232 232 232 233 234 234 233 232 230 227 223 221 223 223 222 223 225 226 230 232 231 230 233 233 230 228 230 234 238 241 245 248 248 248 248 244 239 233 226 222 221 219 214 207 201 196 194 196 199 200 199 199
345 346 345 346 344 339 332 323 311 301 292 277 263 251 238 229 228 228 225 223 223 225 226 226 227 228 230 232 233 233 232 234 235 235 233 233 233 232 228 224 222 221 221 222 222 222 223 223 223 224 226 230 232 231 230 232 232 229 228 229 233 237 242 248 252 251 248 245 241 234 226 220 218 217 211 201 196 195 194 194 196 198 197 199 203
350 352 353 352 349 343 337 328 314 300 288 274 262 252 244 238 235 231 227 225 224 225 227 227 226 227 229 231 232 231 230 230 232 234 233 233 232 228 223 220 219 219 219 220 221 222 223 224 224 226 228 228 229 231 230 230 231 231 229 227 229 235 244 251 251 247 242 241 238 230 222 217 214 210 202 196 194 195 194 194 196 198 200 204 206
355 356 355 354 351 347 341 335 325 311 297 282 269 261 254 251 249 243 235 230 228 227 228 228 226 225 227 230 231 230 229 229 230 231 231 230 229 227 225 224 224 222 222 221 221 221 222 224 226 227 223 218 223 230 233 234 235 232 227 224 226 231 237 244 245 242 238 236 232 225 219 215 209 202 196 193 193 194 195 198 200 204 208 211 210
359 3 0 356 354 351 347 340 333 327 317 297 278 268 261 255 250 244 236 232 229 226 225 225 223 221 223 227 229 228 227 227 228 228 228 227 226 226 226 227 226 225 224 224 222 220 219 224 226 219 205 208 223 229 231 232 235 232 228 228 230 232 233 236 237 237 234 231 226 221 215 208 202 199 198 197 197 199 204 207 207 209 212 214 213
360 7 6 2 0 358 354 347 339 334 331 318 298 280 266 256 249 241 235 231 227 224 223 224 223 222 222 224 224 221 219 219 221 224 226 227 227 226 226 226 227 227 225 223 219 215 216 223 222 208 199 216 227 228 226 228 232 235 235 234 233 232 229 227 227 228 227 225 221 216 209 202 199 202 206 206 207 211 214 214 212 211 212 213 213
3 9 8 7 7 3 359 355 347 339 333 327 316 300 280 262 248 240 237 235 229 224 225 226 227 227 226 224 222 218 214 214 218 221 223 225 226 227 226 225 225 226 224 219 215 213 217 223 220 206 205 222 231 230 228 230 230 230 229 227 225 224 223 221 220 221 221 218 213 207 202 198 199 204 207 208 210 214 213 210 210 211 210 210 212
8 12 10 11 11 8 3 359 353 345 338 330 322 315 303 285 266 249 241 239 239 235 232 231 232 231 228 226 226 223 217 215 218 219 221 223 224 224 225 225 226 226 223 217 213 212 213 217 218 212 214 226 232 231 230 231 227 220 216 215 214 213 213 212 210 208 208 208 205 201 198 197 197 200 202 202 204 205 200 198 202 206 207 208 206
12 18 15 13 15 14 9 2 354 349 344 337 330 326 320 309 294 271 248 238 239 242 240 238 238 235 230 228 226 221 215 214 216 215 214 214 214 215 215 215 216 217 214 209 205 202 201 202 203 202 207 218 223 223 223 223 220 212 206 206 204 199 197 198 196 192 193 195 195 194 193 192 193 196 197 196 194 192 191 192 195 197 196 194 191
16 27 25 20 18 17 13 7 1 355 350 346 343 342 337 328 315 296 270 248 240 241 243 244 241 235 229 227 220 210 205 206 204 199 193 188 185 183 181 178 177 177 176 176 176 178 179 176 171 173 186 198 201 199 200 202 199 193 191 193 190 185 184 184 182 179 179 179 179 181 182 182 184 188 189 188 187 186 185 184 182 180 178 177 176
27 39 39 33 27 22 18 15 11 2 354 354 0 6 4 355 341 326 309 282 256 244 240 237 230 216 204 199 195 191 188 184 176 169 164 161 158 152 146 144 145 144 142 141 144 151 155 152 149 154 166 173 172 170 171 171 172 172 174 174 172 169 168 168 168 170 171 169 169 172 174 172 175 178 177 178 180 177 174 172 170 167 166 166 167
33 45 47 43 36 29 23 19 16 10 6 8 14 22 26 23 15 6 0 349 310 254 220 196 180 170 162 161 163 162 155 147 144 143 143 143 141 137 136 137 136 133 131 132 136 140 140 134 131 131 132 131 138 148 151 149 150 154 157 159 158 155 153 153 156 160 163 163 164 166 166 166 167 167 165 166 168 167 163 161 161 159 160 162 165
36 46 49 47 42 36 29 23 18 16 18 22 25 29 33 35 34 32 31 34 38 51 102 133 141 140 136 135 137 137 135 133 130 126 123 121 121 122 126 130 130 129 130 131 132 131 129 126 124 120 112 106 110 118 124 128 132 135 138 142 143 141 139 142 146 149 153 158 158 158 157 155 154 153 153 155 157 156 154 154 156 159 162 166 170
43 49 52 52 50 44 37 32 27 23 23 29 34 36 37 40 43 43 44 47 53 59 67 79 95 108 112 114 117 119 121 121 120 118 116 114 113 113 115 117 121 124 124 123 122 121 120 120 121 118 114 108 104 103 106 112 117 119 123 127 129 130 132 136 139 141 145 148 149 150 150 147 144 145 147 148 149 150 150 150 152 155 159 163 171
48 54 56 56 56 52 45 39 35 32 30 33 38 41 43 45 47 48 48 49 53 59 64 67 76 89 98 102 105 108 109 110 109 110 111 112 111 110 108 106 107 111 113 114 114 113 112 112 114 115 115 112 108 103 102 104 106 109 111 113 115 118 123 127 128 129 131 135 138 141 143 142 141 141 142 143 144 145 145 145 148 154 161 171 183
50 55 58 58 58 57 53 48 44 41 39 39 41 43 46 48 49 50 51 52 54 59 65 70 73 80 89 95 97 99 103 106 107 106 106 107 108 108 107 104 101 102 104 105 107 108 110 111 112 112 112 110 108 107 106 104 104 104 105 104 106 109 113 115 117 117 119 124 127 130 134 137 137 137 139 142 145 147 149 152 158 163 166 170 171
52 56 60 62 62 62 60 57 53 49 47 47 46 46 47 49 50 51 52 53 53 57 64 70 73 76 84 93 96 95 94 98 103 105 105 105 104 105 107 106 104 103 103 103 103 105 107 109 109 108 109 110 110 110 108 106 106 106 105 105 106 109 110 112 113 114 117 122 126 130 137 141 140 139 140 141 142 143 145 147 149 149 149 147 144
56 58 62 66 67 65 63 60 58 55 53 54 53 52 51 51 53 54 55 55 56 60 65 69 70 71 76 86 94 95 92 90 95 99 101 101 101 102 103 104 104 105 106 106 105 103 103 103 103 104 106 108 110 110 108 106 105 105 105 105 105 106 108 110 110 110 114 119 121 125 130 132 130 129 128 126 127 130 131 133 137 141 141 139 136
Height
789 791 794 797 800 802 805 807 810 813 816 818 819 821 823 825 826 828 830 832 834 835 837 838 840 842 843 845 847 848 849 850 851 853 853 854 855 856 857 858 859 859 860 861 861 861 862 862 863 863 864 865 865 866 866 866 866 866 866 866 866 866 866 866 866 864 863 863 862 861 861 860 860 859 859 857 856 855 853 852 851 850 850 849 849
785 788 791 794 796 799 802 805 808 811 813 816 817 819 820 822 824 826 828 830 832 833 835 836 838 840 841 843 845 846 847 849 850 851 852 853 854 855 856 857 857 858 859 859 860 860 861 861 861 862 863 864 864 865 865 865 866 866 865 865 865 865 865 865 865 864 862 862 862 861 861 860 859 859 858 857 855 854 852 851 850 849 849 849 848
782 785 788 791 793 796 799 802 805 808 810 813 814 816 818 820 822 824 826 828 829 831 832 834 836 837 839 841 842 844 846 847 849 850 851 851 852 853 854 855 856 857 857 858 858 859 860 860 860 861 862 862 863 864 864 865 865 865 865 865 865 865 865 865 864 864 862 861 861 860 860 859 859 858 858 856 855 853 852 851 850 849 849 849 848
780 783 786 788 791 794 796 799 802 805 807 809 811 813 816 818 820 821 823 826 827 829 830 832 834 835 837 838 840 841 843 845 846 848 849 850 851 851 853 854 854 855 856 856 857 858 858 858 859 860 861 861 861 862 863 863 863 864 864 864 864 864 864 864 863 863 862 861 860 860 860 859 858 858 857 855 854 853 852 851 850 849 849 848 848
778 780 783 786 789 791 793 796 799 801 803 806 808 811 813 815 817 819 821 823 825 827 829 830 831 833 834 836 838 839 840 842 844 845 846 848 849 850 851 852 853 853 854 855 856 856 857 857 857 858 859 859 860 860 861 862 862 862 862 862 863 863 863 862 862 862 861 860 859 859 859 858 857 856 856 855 853 852 851 850 850 849 849 848 848
775 778 781 783 785 788 790 793 795 797 800 802 805 808 811 813 815 816 818 820 822 824 826 828 829 830 832 833 835 836 838 839 840 842 844 845 847 848 849 850 851 852 853 853 854 855 855 855 856 857 857 858 858 858 859 860 860 860 861 861 861 861 861 861 861 861 860 860 859 858 858 857 856 855 855 854 853 851 850 849 849 849 848 847 847
772 775 778 780 782 784 786 789 791 794 796 799 802 805 807 810 812 813 815 816 818 821 822 824 826 827 829 831 832 833 835 836 838 839 841 842 844 845 846 848 849 849 850 851 852 853 853 854 854 855 855 856 856 856 857 858 858 859 859 859 860 860 860 860 860 859 859 858 858 858 857 856 855 854 853 853 852 851 850 848 848 848 848 847 846
769 772 775 777 779 780 783 786 788 791 793 795 798 801 804 806 808 810 812 813 815 817 819 821 823 824 826 827 829 831 832 833 835 836 838 840 841 842 844 845 846 847 848 849 850 851 851 852 852 853 853 854 854 854 855 855 856 856 857 858 858 858 858 858 858 858 858 857 857 857 856 855 854 853 853 852 851 851 850 848 847 847 847 846 845
765 768 771 773 775 777 780 783 785 788 791 792 795 797 800 803 805 807 809 810 811 813 815 818 819 821 823 824 826 828 829 830 832 833 835 836 838 839 841 842 843 844 845 846 847 848 849 849 850 850 851 851 852 852 853 854 854 854 855 856 856 857 857 857 857 857 857 856 856 855 854 853 853 852 852 851 851 850 849 848 846 846 845 845 844
761 764 767 768 771 774 777 780 782 785 787 789 792 794 796 799 802 804 805 807 808 810 812 815 816 818 819 821 823 824 825 827 828 830 831 833 835 836 837 839 840 842 843 843 844 845 846 846 847 848 848 849 849 850 851 851 852 852 853 854 854 855 855 855 855 855 855 855 854 854 853 851 851 852 851 851 850 849 848 847 845 845 844 843 843
757 760 762 765 769 771 774 777 779 782 784 786 789 791 793 796 798 800 802 803 805 807 809 811 812 814 816 817 819 821 822 823 824 826 828 829 831 833 834 836 837 838 840 841 841 842 842 843 844 844 845 846 847 847 848 849 849 850 851 851 852 853 853 853 853 853 854 853 852 852 851 850 850 850 850 849 849 848 847 846 845 844 844 843 842
754 757 759 763 766 768 771 774 776 778 781 783 786 788 790 793 794 796 798 800 802 803 805 807 808 811 813 814 816 817 818 819 821 822 824 826 828 830 831 833 834 835 837 837 838 839 839 840 840 841 842 842 843 844 845 846 846 847 848 849 849 850 851 851 851 851 851 851 850 850 849 849 848 849 849 848 847 846 845 845 845 844 844 843 842
753 755 758 761 763 765 768 770 773 775 777 779 782 785 787 789 791 793 794 796 799 800 801 803 804 807 809 810 812 813 814 815 817 819 820 822 824 826 828 829 831 832 833 834 835 835 836 836 837 837 838 839 840 841 841 842 843 844 845 846 846 847 848 849 849 849 849 849 848 847 847 847 847 846 847 846 845 845 844 844 844 843 843 842 841
752 754 756 758 760 762 765 767 769 771 774 776 779 781 783 785 787 789 791 793 795 796 797 799 800 802 804 806 808 809 810 811 813 814 816 818 820 822 824 826 827 828 829 830 831 832 833 833 833 834 834 835 836 837 838 839 840 840 841 842 843 844 845 845 846 846 846 846 845 844 844 845 844 843 844 844 843 843 843 843 842 842 841 840 839
748 752 755 757 759 759 761 763 766 768 770 773 775 776 779 781 783 786 788 789 790 792 794 795 796 798 800 802 804 805 806 807 809 810 812 813 816 818 820 822 824 825 826 827 828 828 829 830 830 831 831 832 833 834 835 836 837 838 839 839 840 840 841 841 842 842 842 842 842 841 841 842 841 841 842 842 842 841 841 840 840 839 839 838 837
742 745 749 754 758 760 760 760 762 765 767 769 771 773 775 777 780 782 784 785 787 788 790 791 793 794 796 798 800 800 801 803 804 806 807 810 812 814 816 818 820 821 822 823 824 825 825 826 827 828 828 828 829 831 833 834 835 836 836 836 836 837 837 837 838 838 838 838 838 838 838 838 838 838 839 839 839 839 838 838 837 837 837 836 835
741 741 742 745 751 758 762 762 760 761 764 765 767 769 771 773 775 778 780 781 783 784 786 787 788 790 792 793 795 795 796 798 800 801 803 806 808 811 813 814 816 817 818 819 820 820 821 822 823 824 824 825 826 827 830 831 832 832 833 833 833 832 832 832 833 833 834 834 834 834 835 835 835 835 835 836 836 836 836 835 835 835 835 835 833
741 742 742 741 743 749 758 763 762 760 760 761 763 765 767 769 771 772 775 776 777 779 781 782 784 785 787 788 789 790 791 793 795 797 799 802 804 806 808 810 812 813 814 815 816 816 817 818 819 820 820 821 822 823 826 828 828 829 829 829 829 828 827 827 828 829 829 830 830 830 830 831 831 832 832 833 833 833 833 832 832 833 833 832 832
740 742 743 743 742 742 748 758 762 760 757 757 759 761 763 764 766 768 770 772 773 775 776 778 779 780 782 783 784 786 787 788 791 793 795 797 799 802 804 806 807 808 809 810 811 812 813 814 815 816 816 817 818 819 821 823 824 825 826 827 826 824 822 823 824 825 825 825 826 826 826 827 828 828 829 829 830 830 830 829 829 830 829 829 829
740 740 741 741 741 739 740 747 754 756 755 755 756 758 759 761 762 764 766 768 770 771 772 773 774 775 777 778 779 781 782 784 786 788 790 792 794 797 800 802 803 804 805 806 807 808 809 810 810 812 812 813 814 815 817 820 821 822 823 823 822 820 819 821 822 822 822 822 822 822 822 823 824 824 825 826 827 827 827 826 826 826 826 826 827
739 738 737 737 737 736 736 739 744 748 749 750 752 754 755 757 759 760 762 764 766 767 768 769 770 771 772 773 774 776 777 779 782 783 785 787 790 792 795 796 798 799 800 802 803 803 804 805 806 807 808 809 810 812 814 816 817 818 818 818 818 817 818 819 819 819 820 819 819 819 819 820 820 821 822 823 823 823 824 823 823 823 823 824 824
737 735 733 732 732 732 732 735 738 741 743 745 748 749 751 753 755 756 758 760 761 763 764 765 766 766 767 768 769 771 773 775 777 778 780 782 785 787 789 791 793 795 796 797 798 798 799 800 801 802 804 805 806 808 810 811 812 813 813 813 814 815 816 816 816 817 817 817 817 817 816 817 817 818 818 819 820 820 821 820 820 820 821 821 821
735 733 730 728 728 728 730 732 734 736 738 740 742 744 746 748 750 752 754 755 757 759 759 760 762 762 763 764 765 766 768 770 771 774 776 778 780 782 784 786 789 790 791 792 793 794 795 796 797 799 800 801 803 804 805 806 807 808 808 809 810 812 813 813 814 814 814 814 814 813 813 814 814 814 815 816 816 817 818 818 818 818 818 819 819
733 732 729 728 728 728 729 730 731 731 733 735 738 739 741 743 746 747 749 751 753 754 755 756 757 758 758 760 760 762 764 765 767 769 771 773 775 777 780 782 784 786 787 787 788 789 791 792 794 795 797 798 799 800 801 802 802 803 804 806 807 809 810 810 810 810 810 810 809 809 809 810 810 811 812 813 814 814 815 815 816 816 817 817 817
732 730 728 728 728 728 727 727 727 727 728 731 733 734 736 739 741 743 745 747 748 748 749 751 752 753 754 755 756 758 760 762 763 765 767 769 770 772 775 777 779 781 782 783 784 786 787 788 790 791 793 794 795 796 797 797 798 800 801 802 803 805 805 805 805 805 805 805 805 804 805 806 807 808 809 810 811 812 813 814 815 815 816 816 816
730 729 728 727 726 726 725 723 723 723 724 726 727 729 731 733 735 737 739 741 742 743 744 746 747 748 749 750 752 755 756 757 759 760 762 764 765 767 770 772 774 777 778 779 780 782 784 785 787 788 789 790 791 792 792 793 794 796 797 798 799 800 800 800 800 800 800 800 800 800 800 801 803 805 806 808 809 810 811 813 813 814 814 815 815
728 728 727 725 724 723 722 720 719 719 720 721 723 725 727 729 731 732 734 735 736 738 740 741 743 744 745 747 749 751 752 753 753 754 756 758 760 762 765 767 770 772 774 775 777 779 781 782 783 785 786 787 787 788 788 789 790 791 792 793 794 794 795 795 795 795 795 795 796 796 797 798 800 802 803 804 806 807 809 810 811 812 813 814 815
727 726 725 723 722 720 718 717 716 716 716 717 718 720 721 724 725 726 727 728 730 732 734 735 736 737 739 742 744 746 746 746 746 747 750 752 754 757 760 762 765 767 769 770 773 775 777 779 780 782 782 783 783 783 783 784 785 786 787 788 789 789 790 790 790 791 791 792 792 792 794 795 797 799 801 802 803 804 805 806 807 809 811 812 813
727 725 723 720 718 716 714 712 712 712 712 713 714 715 715 717 719 719 719 720 721 723 725 727 728 731 733 735 737 739 739 738 739 742 746 747 749 752 754 757 760 762 764 766 769 772 774 775 777 778 778 779 779 778 778 779 780 780 782 783 784 784 785 785 785 786 787 787 788 788 790 792 795 798 801 803 805 805 803 803 804 806 807 809 810
726 724 721 718 715 712 711 709 709 709 709 710 710 711 712 714 714 714 715 716 717 718 719 720 722 725 727 729 730 731 731 732 735 739 742 743 745 748 750 752 756 758 760 764 767 769 770 771 772 773 774 774 774 773 774 774 774 775 776 778 778 779 779 780 780 782 782 783 783 784 786 790 795 799 799 800 802 803 801 800 801 802 804 806 808
726 723 721 718 714 712 710 708 707 707 707 707 708 708 710 711 711 711 712 713 714 715 716 718 719 721 723 724 725 726 727 730 734 736 738 741 743 745 747 749 752 754 757 760 762 763 765 766 767 768 769 769 769 769 770 770 770 770 771 772 773 773 774 775 776 778 778 779 779 781 783 787 791 792 792 793 796 797 798 798 799 800 802 804 806
725 722 719 717 714 711 709 708 707 706 706 705 705 705 706 707 708 708 709 710 711 713 714 716 717 719 719 721 722 723 725 728 731 733 736 738 740 741 743 745 747 750 753 755 756 757 759 761 762 763 765 765 764 765 766 766 766 766 767 767 767 768 769 770 772 774 775 775 776 778 780 782 784 785 787 790 792 793 794 795 796 798 800 801 803
724 721 718 715 712 710 708 707 705 704 704 704 703 703 703 703 703 704 705 707 708 710 711 712 714 716 717 718 719 721 723 725 728 731 733 735 736 738 740 741 743 745 747 749 750 752 753 755 757 759 760 760 760 761 762 762 761 762 763 763 764 765 766 768 770 771 771 772 773 775 777 778 780 781 784 787 788 790 791 793 795 796 797 799 800
723 719 716 714 711 709 707 705 704 703 702 702 702 701 701 701 702 703 704 705 706 706 707 708 710 712 714 715 717 719 721 723 725 727 729 731 733 735 736 737 738 740 742 743 744 746 748 750 751 753 755 755 755 757 758 758 758 758 759 760 761 762 764 766 767 768 769 769 771 772 773 775 777 778 781 783 785 787 789 790 792 794 794 796 798
721 717 715 712 710 708 706 704 703 702 700 700 700 700 699 699 699 700 701 702 702 702 702 703 705 707 709 711 713 715 718 720 722 724 726 728 730 732 733 733 734 735 736 737 739 740 742 744 745 747 749 749 750 752 754 754 754 755 755 757 758 760 762 763 764 765 766 767 767 768 770 772 774 776 778 779 781 783 784 786 788 790 791 793 796
719 715 712 710 708 707 705 703 702 701 699 698 698 697 696 696 695 695 696 697 698 698 699 700 702 703 705 706 709 711 714 717 719 720 722 724 725 727 728 728 728 728 729 730 732 734 736 738 739 741 742 744 747 749 751 750 749 749 750 753 756 757 758 760 761 762 763 764 764 765 767 769 770 771 772 773 775 777 779 782 785 787 789 792 794
717 713 710 708 706 704 703 702 701 700 699 697 696 695 694 694 694 694 694 695 695 696 697 698 699 700 701 702 704 707 710 712 714 716 718 719 720 721 721 721 722 723 723 724 726 728 731 732 733 735 738 742 745 745 744 744 744 745 747 748 748 748 749 753 757 759 760 761 761 762 764 765 767 768 769 770 771 773 776 779 782 785 788 791 793
715 711 709 707 704 702 701 700 700 699 697 696 694 693 692 692 692 692 692 692 692 693 694 694 694 694 695 697 699 702 705 708 710 711 713 714 714 714 715 716 717 718 718 719 721 723 725 726 727 730 734 737 736 734 734 737 740 743 746 747 744 742 743 748 752 756 757 758 759 760 762 764 766 768 770 770 771 772 774 777 780 783 786 789 791
715 711 708 706 704 702 700 699 698 698 697 695 693 691 691 690 689 689 688 688 689 689 690 690 690 690 691 692 694 697 700 702 703 704 706 707 708 708 709 712 713 714 715 715 717 718 719 720 722 727 730 731 729 728 730 733 736 740 745 747 744 741 742 746 750 753 755 756 757 758 760 763 765 767 769 770 771 772 773 775 778 781 784 787 789
714 711 708 705 703 702 700 699 698 697 696 695 692 690 689 687 687 686 686 686 686 687 686 686 686 686 687 689 689 690 693 695 696 698 700 702 703 704 706 708 709 711 712 712 713 714 715 717 721 726 728 729 728 728 730 733 735 740 745 745 742 741 742 745 748 751 752 754 755 757 759 761 762 764 766 768 770 771 772 775 778 780 782 784 786
713 710 707 705 703 701 700 699 698 696 696 695 692 690 688 686 685 685 684 684 684 683 683 682 681 682 683 684 684 685 687 689 691 694 696 698 700 702 704 706 708 710 711 712 712 713 714 717 720 724 726 728 729 730 732 734 737 741 743 741 738 739 741 744 746 749 751 753 754 756 758 759 760 761 763 766 767 769 771 773 776 779 781 783 785
712 709 707 705 703 702 701 700 699 697 696 694 691 689 688 686 684 683 681 680 679 679 679 679 679 679 679 679 679 681 685 687 690 692 694 696 699 701 702 704 707 709 711 712 712 712 713 715 717 721 725 728 729 730 732 733 735 737 738 736 735 737 740 742 745 747 749 751 753 755 756 758 759 761 763 764 766 768 770 772 775 777 779 781 783
712 708 706 705 704 703 702 701 700 698 696 694 691 688 686 684 683 681 679 677 675 675 676 676 677 677 677 678 680 683 686 688 690 692 694 695 697 699 701 703 705 707 710 711 711 711 712 713 716 719 723 726 727 729 731 732 733 734 734 734 734 736 738 740 744 746 748 750 753 755 757 758 759 760 762 764 765 768 770 772 774 776 778 780 781
713 709 706 705 705 704 703 702 701 699 698 695 691 686 683 683 682 681 679 676 674 673 673 674 675 676 678 681 683 685 686 687 689 690 692 694 696 698 699 701 703 706 709 711 712 711 711 711 714 718 723 726 727 730 733 734 733 733 733 734 735 736 737 740 743 745 747 748 751 754 757 758 759 760 762 764 766 768 770 772 774 776 777 779 781
713 709 706 705 704 704 704 703 702 701 699 696 691 686 683 682 682 681 679 677 675 674 674 673 675 677 679 681 683 684 685 686 688 690 691 693 695 697 698 700 702 705 708 710 711 710 709 709 712 718 725 728 730 730 731 732 733 733 733 735 736 737 739 741 743 745 747 749 750 753 756 758 759 761 762 764 767 769 771 773 775 776 778 780 781
712 708 705 704 704 704 704 704 704 702 700 696 691 687 685 684 683 683 681 680 679 679 679 678 678 679 679 681 683 683 684 686 687 689 692 694 697 699 701 701 701 704 707 709 710 709 709 710 714 720 727 732 733 731 730 730 732 734 734 735 737 739 740 742 744 746 748 750 752 754 756 758 760 762 764 766 768 770 772 774 776 777 778 780 781
712 709 707 705 705 705 706 706 705 704 701 698 693 690 689 688 687 686 685 685 685 685 685 685 685 683 683 684 686 686 686 687 687 689 692 694 698 702 705 705 704 704 706 708 709 709 709 709 712 717 724 731 734 734 733 732 734 736 737 737 739 740 742 744 746 747 749 752 753 755 757 759 761 763 765 767 769 771 772 774 776 777 779 780 782
712 710 709 708 707 707 708 708 707 705 703 700 696 694 693 692 691 691 691 691 691 691 691 692 692 689 688 689 690 690 690 690 690 692 694 696 698 702 706 709 710 708 705 705 708 708 708 710 712 716 721 728 733 736 737 737 738 740 740 740 742 744 745 746 748 750 752 755 757 758 760 762 763 765 767 768 770 771 773 774 776 777 779 780 781
714 712 711 710 710 710 710 710 709 707 705 703 701 699 697 696 696 696 697 697 698 699 698 698 698 696 695 696 696 696 695 695 695 696 699 701 702 703 706 711 714 713 710 709 710 711 712 715 718 718 720 725 732 737 740 741 742 744 745 745 747 748 749 750 751 753 755 758 760 762 763 765 766 767 768 769 770 771 772 774 775 776 777 779 780
716 715 714 713 713 713 712 711 710 708 707 706 705 704 702 702 701 702 703 703 704 705 705 704 703 703 704 703 702 701 702 703 701 700 702 705 706 706 708 713 718 718 715 715 716 717 718 719 719 719 721 727 734 739 741 743 745 747 748 749 750 751 752 754 755 756 758 760 762 764 765 766 767 768 768 769 769 770 771 773 774 776 777 778 779
720 718 717 716 716 715 714 713 711 711 711 710 709 709 709 709 708 708 709 710 711 712 711 710 709 711 712 711 706 704 708 711 709 705 705 708 710 711 715 720 723 722 720 718 718 719 719 718 719 721 727 733 738 741 743 745 747 749 750 751 752 753 755 757 758 760 761 763 765 766 767 768 768 769 769 770 770 771 772 773 774 775 776 778 779